Regional Weather Roundup
Issued by NWS

Home | Current Version | Previous Version | Text Only | Print | Product List | Glossary On
Versions: 1 2 3 4 5 6 7 8 9 10 11 12 13 14 15 16 17 18 19 20 21 22 23 24 25 26 27 28 29 30 31 32 33 34 35 36 37 38 39 40 41 42 43 44 45 46 47 48 49 50
000
ASUS43 KMKX 021900
RWRWI

WISCONSIN REGIONAL WEATHER ROUNDUP
NATIONAL WEATHER SERVICE MILWAUKEE/SULLIVAN WI
200 PM CDT WED SEP 02 2015

NOTE: "FAIR" INDICATES FEW OR NO CLOUDS BELOW 12,000 FEET WITH NO
SIGNIFICANT WEATHER AND/OR OBSTRUCTIONS TO VISIBILITY.

WIZ001-002-006>008-014>016-023>028-022000-
NORTHWEST WISCONSIN

CITY           SKY/WX    TMP DP  RH WIND       PRES   REMARKS
SUPERIOR ARPT  PTSUNNY   76  69  78 S9        29.91F
ASHLAND        CLOUDY    73  70  90 SE8       29.96F
HAYWARD        CLOUDY    70  66  87 E6        30.00S
SIREN          CLOUDY    70  66  89 E5        29.98S
CUMBERLAND     TSTM      64  63  94 E5        30.00S
RICE LAKE      TSTM      66  64  93 E12       30.00S
CHETEK         RAIN     N/A N/A N/A NE5       29.98F
LADYSMITH      TSTM      67  65  93 E7        30.01F
EAU CLAIRE     LGT RAIN  71  67  87 S18G26    29.93F
MENOMONIE      CLOUDY    69  67  92 NE12      29.94F THUNDER
NEW RICHMOND   LGT RAIN  67  66  98 E9        29.96F
OSCEOLA        DRIZZLE   68  68 100 E5        29.98S
$$

WIZ003>005-009-010-017-018-022000-
NORTH CENTRAL WISCONSIN

CITY           SKY/WX    TMP DP  RH WIND       PRES   REMARKS
MANITOWISH WTR RAIN      67  67 100 E3        30.04F
ARBOR VITAE    LGT RAIN  69  66  92 E3        30.04F
WOODRUFF       LGT RAIN  69  66  92 E3        30.04F
RHINELANDER    LGT RAIN  69  66  90 CALM      30.05R
EAGLE RIVER    RAIN      68  67  98 NE5       30.04F
LAND O LAKES   RAIN      68  67  95 NE6       30.06F
PHILLIPS       RAIN      65  64  97 E6        30.02F
TOMAHAWK       LGT RAIN  67  65  93 NW3       30.05S
MEDFORD        CLOUDY    68  68  98 NE8       30.01S
MERRILL        LGT RAIN  71  69  94 N7        30.01S
$$

WIZ029-030-035-036-043>047-022000-
CENTRAL WISCONSIN

CITY           SKY/WX    TMP DP  RH WIND       PRES   REMARKS
WAUSAU         CLOUDY    82  69  64 N6        29.96F HX  85
MOSINEE        NOT AVBL
MARSHFIELD     CLOUDY    83  67  58 CALM      29.97F HX  85
STEVENS POINT  PTSUNNY   83  65  55 S7        29.98S HX  85
WAUPACA        PTSUNNY   88  67  48 SW7       29.97S HX  91
WAUTOMA        NOT AVBL
WISC RAPIDS    PTSUNNY   85  66  53 SW9       29.98S HX  87
CAMP DOUGLAS   NOT AVBL
$$

WIZ011>013-019>022-031-037>040-048>050-022000-
NORTHEAST WISCONSIN

CITY           SKY/WX    TMP DP  RH WIND       PRES   REMARKS
ANTIGO         CLOUDY    77  69  75 CALM      30.01F
SHAWANO        PTSUNNY   86  71  60 S3        29.96F HX  92
OCONTO         PTSUNNY   88  74  63 S6        29.94F HX  96
STURGEON BAY   PTSUNNY  N/A N/A N/A MISG        N/A
GREEN BAY      PTSUNNY   86  71  60 SW5       29.96F HX  91
MANITOWOC      NOT AVBL
APPLETON       MOSUNNY   84  64  51 S9        29.96F HX  86
CLINTONVILLE   MOSUNNY   88  66  48 S8        29.95F HX  90
OSHKOSH        MOSUNNY   86  69  56 SW9       29.97F HX  90
$$

WIZ032>034-041-042-053>061-022000-
SOUTHWEST WISCONSIN

CITY           SKY/WX    TMP DP  RH WIND       PRES   REMARKS
LA CROSSE      PTSUNNY   86  68  54 S8        29.92F HX  89
SPARTA         SUNNY     85  63  46 S6        29.96S HX  86
VIROQUA          N/A     83  65  55 S7        29.98S HX  84
BOSCOBEL       SUNNY     87  68  52 SW7       29.96F HX  90
PRAIRIE DU CHI SUNNY     84  64  50 S8        29.95F HX  86
PLATTEVILLE    PTSUNNY   80  71  73 S13       30.00S HX  84
$$

WIZ056-057-062-063-064-067-068-022000-
SOUTH CENTRAL WISCONSIN

CITY           SKY/WX    TMP DP  RH WIND       PRES   REMARKS
REEDSBURG      CLOUDY    84  71  64 S12G18    29.97F HX  88
BARABOO/DELLS  CLOUDY    84  66  54 S15       29.98S HX  86
LONE ROCK      NOT AVBL
MINERAL POINT  PTSUNNY   82  70  65 S13       30.01S HX  86
MADISON        PTSUNNY   83  67  58 SW6       29.99F HX  85
MIDDLETON      PTSUNNY   84  65  52 SW12      30.00S HX  85
WATERTOWN      MOSUNNY   87  69  55 SW14      29.99F HX  91
MONROE         PTSUNNY   82  66  57 SW17G23   30.01F HX  85
JANESVILLE     PTSUNNY   88  66  48 SW12G17   30.00S HX  90
$$

WIZ051-052-058>065-066-070>072-022000-
SOUTHEAST WISCONSIN

CITY           SKY/WX    TMP DP  RH WIND       PRES   REMARKS
MILWAUKEE      PTSUNNY   87  67  51 W14       30.00S HX  90
WAUKESHA       SUNNY     82  68  61 W7        30.02  HX  85
MILWAUKEE/TIMM PTSUNNY   88  64  45 W12       30.00F HX  89
RACINE         SUNNY     89  69  51 W10       30.02S HX  93
BURLINGTON     MOSUNNY  N/A N/A N/A SW9       30.01F
KENOSHA        MOSUNNY   90  68  48 SW14G21   30.01S HX  94
FOND DU LAC    MOSUNNY   85  70  60 SW8       29.98F HX  89
SHEBOYGAN      SUNNY     87  68  52 SW12      29.98F HX  90
WEST BEND      SUNNY     86  66  51 W10       30.00S HX  88
JUNEAU         PTSUNNY   84  68  59 SW13      30.01F HX  87
$$

LSZ147-162-022000-
LAKE SUPERIOR

STATION/POSITION TIME  TEMP    WIND        PRES    WAVE
                       AIR SEA DIR/SP/G            HT/PER
                 (UTC) (F)     (DEG/KT/KT) (MB)    (FT/S)
W MID LAKE BUOY  1750   58 55   30/  8/  8 1015.1F   0
DEVILS ISLAND    1800   64     140/  9/ 11 1014.5F
PORT WING        1840   74     100/  3/ 15 1013.5F
SAXON HARBOR     1800   70        CALM     1015.2F
$$

LMZ867-665-643>646-022000-
LAKE MICHIGAN

STATION/POSITION TIME  TEMP    WIND        PRES    WAVE
                       AIR SEA DIR/SP/G            HT/PER
                 (UTC) (F)     (DEG/KT/KT) (MB)    (FT/S)
CHAMBERS ISLAND  1800   71     320/  6/ 11 1015.9R
S GREEN BAY BUOY 1800   74 68  130/  4/  4 1016.0
N MID LAKE BUOY  1750   67 68   CALM  /  2 1014.9S   1
NORTHPORT PIER   1800   70      10/  7/ 16 1014.9F
SISTER BAY       1819           20/  7/  8   N/A
ALGOMA LAKESHORE 1829          220/  4/  6   N/A
KEWAUNEE LAKESHO 1800   61     140/  5/  8 1014.0S
SHEBOYGAN LAKESH 1800   78     180/ 14/ 16 1015.1F
PORT WASHINGTON  1840   68     110/  2/  8 1016.3S
ATWATER BUOY     1800   60     130/  8/ 10 1017.1F
MILWAUKEE LAKESH 1810   78     200/  2/  5   N/A
S MID LAKE BUOY  1750   72 71  200/  8/ 10 1015.9F   1
KENOSHA   LAKESH 1800   76     170/ 13/ 17 1015.2F
$$

TC  - TEMPERATURE IN CELSIUS
VSB - VISIBILITY IN STATUTE MILES
WCI - WIND CHILL INDEX
HX  - HEAT INDEX



USA.gov is the U.S. government's official web portal to all federal, state and local government web resources and services.